Find Starlink 31042

NORAD ID: 58739 Int'l Des: 2024-005 Owner: SPXS Country: US Constellation: starlink operational
LEOCIRCULAR

实时位置

正在加载3D地球...

关于 Starlink 31042

正在加载描述...

即将过境

Passes for default location (London). Set your location on the main map for personalized predictions.

高度历史

Loading altitude history...

两行轨道根数

1 58739U 24005M 26125.37863839 .00001844 00000-0 76517-4 0 9993
2 58739 43.0000 259.5811 0001502 255.0611 105.0074 15.27582264129113
Epoch: May 5, 2026 • Age: 10 hours

当前状态

高度 483.1 km
速度 7.63 km/s
星下点 23.17°N, 100.62°W
发射日期 Jan 7, 2024
运行时间 2.3 years
类型 internet

技术详情

分类 Payload
质量 730.00 kg
干质量 700.00 kg
总质量 730.00 kg
长度 0.30 m
直径 4.10 m
跨度 29.00 m
形状 Box + pan
制造商 SPXS
平台类型 Starlink V2M
阶段状态 In Orbit
所有者/国家 SPXS/US

Most Searched